Find Starlink 34627

NORAD ID: 65016 Int'l Des: 2025-161 Owner: SPXS Country: US Constellation: starlink operational
LEOCIRCULAR

Live Position

Loading 3D Globe...

About Starlink 34627

Description loading...

Upcoming Passes

Passes for default location (London). Set your location on the main map for personalized predictions.

Altitude History

Loading altitude history...

Two-Line Element Set

1 65016U 25161B 26104.77516853 .00007650 00000-0 27014-3 0 9993
2 65016 53.1588 126.6654 0001423 79.4654 280.6507 15.30201926 40961
Epoch: Apr 14, 2026 • Age: 8 hours

Current Status

Altitude 478.8 km
Velocity 7.63 km/s
Sub-Earth Point 43.72°N, 11.83°E
Launch Date Jul 30, 2025
Age 0.7 years
Type internet

Technical Details

Classification Payload
Mass 575.00 kg
Dry Mass 530.00 kg
Total Mass 575.00 kg
Length 0.30 m
Diameter 4.10 m
Span 29.00 m
Shape Box + pan
Manufacturer SPXS
Bus Type Starlink V2MO
Phase Status In Orbit
Owner/State SPXS/US

Most Searched